Temp
9 10 10 11 11 11 11 11 12 12 10 10 10 11 11 11 12 12 11 11 11 11 12 13 13 13 14 14 14 14 14 14 14 15 15 15 15 15 15 16 16 16 17 17 16 16 15 15 15 15 15 15 16 16 16 16 16 16 16 16 16 17 18 18 17 16 15 15 15 15 15 15 15 16 16 15 16 16 16 16 16 16 16 16 17 17
9 9 10 11 11 11 11 11 11 10 10 9 10 10 10 10 11 11 11 11 11 10 11 12 12 12 13 14 14 14 13 13 13 14 14 15 15 15 15 15 16 16 17 16 16 16 16 16 16 15 15 15 15 15 16 16 16 16 16 16 16 16 17 17 17 17 16 16 16 16 16 15 15 15 15 15 15 15 15 16 16 16 16 16 17 17
9 10 11 11 10 10 10 10 10 9 9 9 10 10 10 10 11 11 10 10 11 10 10 12 11 11 12 13 13 13 13 13 14 14 14 14 15 15 15 15 16 16 16 16 16 17 16 16 16 15 15 15 14 15 15 15 15 15 15 15 15 15 16 16 17 17 17 16 17 17 16 16 15 15 15 15 15 15 15 15 15 15 16 16 16 16
10 11 10 9 9 9 9 9 9 9 9 9 10 9 10 11 10 10 10 10 10 10 10 11 10 10 11 12 12 13 13 13 13 13 13 14 14 14 15 15 15 15 15 16 16 16 17 16 16 16 15 15 14 14 14 14 14 14 14 14 14 15 15 15 15 16 16 16 16 16 16 16 15 15 15 14 14 15 15 15 15 15 15 15 15 16
10 10 8 8 8 8 9 8 8 9 9 9 9 9 10 10 9 9 10 10 10 10 10 10 9 10 11 11 11 13 13 13 13 13 13 14 14 14 14 14 14 14 14 15 15 16 16 16 16 16 15 15 14 14 14 14 13 13 13 13 14 14 14 14 14 15 15 15 15 15 15 14 14 15 14 14 14 14 14 14 14 15 15 15 15 15
9 9 7 7 8 8 8 8 8 9 9 9 9 9 9 9 9 9 9 9 9 9 10 10 9 10 13 11 11 12 13 13 13 13 13 14 14 14 14 14 14 14 14 14 14 15 15 15 15 14 14 14 14 13 13 13 13 13 13 13 13 13 13 14 14 14 14 14 14 14 14 14 14 15 15 15 15 14 14 14 14 14 14 14 15 15
8 7 7 7 8 8 8 8 9 8 8 9 10 10 9 9 9 8 9 9 8 9 11 10 8 10 12 11 11 12 11 12 13 13 13 14 14 14 14 14 14 14 14 13 13 13 13 13 13 12 12 12 12 12 11 11 11 12 12 12 12 12 13 13 13 14 14 13 13 13 14 14 15 15 15 15 15 15 14 14 14 14 14 14 14 15
7 6 6 7 7 7 8 8 9 8 8 9 9 9 9 9 9 8 8 8 9 9 10 9 9 8 9 11 12 12 11 11 11 12 13 13 13 14 14 13 13 12 12 12 11 11 11 11 11 10 10 10 9 9 9 9 9 10 10 11 11 12 12 12 13 13 13 13 13 13 13 14 14 15 15 15 15 15 14 14 14 14 14 14 14 14
6 6 7 7 7 7 8 9 9 8 8 9 8 8 8 9 8 8 8 8 9 8 7 8 9 8 8 10 11 11 11 10 11 12 13 14 14 13 12 10 10 10 10 10 9 9 9 10 9 9 9 9 8 8 7 8 8 8 9 9 10 11 11 12 12 12 12 12 13 13 13 13 14 14 14 15 15 14 14 14 14 14 14 13 14 14
6 6 6 6 7 8 8 8 8 8 8 9 8 8 8 8 8 8 8 8 8 7 6 8 9 8 8 10 11 11 11 11 12 13 13 14 12 10 9 9 9 9 9 9 9 9 9 9 9 8 8 8 8 7 7 7 7 7 7 8 9 9 10 11 11 12 12 12 12 12 13 13 13 14 14 14 15 15 14 14 14 14 14 14 13 13
5 4 4 5 6 7 8 7 8 8 8 8 7 8 8 8 8 8 7 8 7 6 6 8 9 8 7 9 11 11 11 12 12 13 14 13 10 9 9 8 8 8 8 8 8 9 9 9 8 8 8 8 8 7 7 7 6 6 7 7 8 8 9 9 10 11 11 12 12 12 12 13 13 13 14 14 14 15 14 14 14 14 14 14 14 13
3 3 4 5 5 6 6 6 7 7 7 7 7 7 7 7 8 7 7 7 5 5 8 8 8 8 6 9 11 12 12 13 12 12 13 11 9 8 8 8 8 8 8 8 8 8 8 8 8 8 8 8 8 7 7 6 6 6 6 6 7 8 8 9 9 10 10 11 11 11 12 12 12 13 13 14 14 14 14 14 14 14 14 14 14 14
5 4 4 4 5 5 6 6 6 6 6 6 6 6 5 6 7 6 6 6 5 6 8 8 8 8 7 9 12 12 12 12 12 12 12 10 8 8 7 7 7 7 8 8 8 8 8 8 8 8 8 8 7 7 7 6 6 6 6 6 6 7 7 8 8 9 10 10 11 11 11 12 12 12 13 13 14 14 14 14 14 14 14 14 14 14
7 5 3 3 5 5 6 7 6 6 6 6 6 6 5 6 5 4 6 7 6 8 8 8 8 8 8 10 10 10 10 10 10 10 9 9 8 7 7 7 7 7 7 7 7 7 7 7 8 8 8 7 7 7 6 6 6 6 5 5 6 6 6 7 7 8 9 10 10 11 11 11 12 12 12 13 13 14 14 14 14 14 14 14 14 13
6 7 5 4 6 6 6 7 8 7 6 6 6 6 6 7 6 5 7 8 8 9 8 8 7 7 10 10 7 7 7 7 8 8 7 7 7 7 7 7 7 7 7 7 7 7 7 7 8 7 7 7 7 7 6 6 6 5 5 5 5 5 6 6 6 7 8 9 10 10 11 11 11 12 12 13 13 13 14 14 14 14 14 14 14 14
3 6 5 4 4 5 5 6 7 7 6 6 7 6 6 7 8 7 8 7 7 7 7 8 8 9 11 9 6 7 7 6 7 7 7 7 7 7 7 7 7 7 7 7 7 7 7 7 7 7 7 7 6 6 6 6 5 5 5 5 5 5 5 5 6 6 7 8 9 10 10 11 11 11 12 12 13 13 13 14 14 14 14 14 14 14
4 4 3 3 3 4 5 6 6 6 7 7 5 5 6 7 7 6 6 7 6 5 6 8 8 9 11 9 8 7 7 6 6 6 7 7 7 7 7 6 7 6 7 7 7 7 7 7 7 7 6 6 6 6 6 5 5 5 5 5 5 5 5 5 5 6 6 7 8 9 10 10 11 11 11 12 12 13 13 13 14 14 14 13 13 14
5 5 3 3 4 4 4 4 5 6 7 6 5 6 6 6 6 5 5 6 5 5 6 8 8 8 9 9 8 7 6 6 6 6 6 6 7 6 6 6 6 6 6 7 7 7 7 7 7 6 6 6 6 5 5 5 5 5 5 5 5 4 4 4 4 5 6 7 7 8 9 10 10 11 11 11 12 12 13 13 13 13 13 13 13 14
4 5 4 2 4 5 3 4 5 5 5 5 5 6 6 5 5 5 4 4 5 4 6 8 8 8 9 10 9 7 6 6 5 6 6 6 6 6 6 6 6 6 6 6 6 6 7 7 7 6 6 6 5 5 5 4 4 4 5 5 4 4 4 4 4 4 5 6 7 8 9 9 10 11 11 11 12 12 12 12 13 13 13 13 13 13
3 4 4 1 2 4 4 4 5 5 4 4 4 5 6 5 6 6 5 5 5 5 5 7 7 8 10 11 10 7 6 6 6 6 5 5 6 5 6 6 6 6 6 6 6 6 6 7 7 6 6 5 5 5 4 4 4 4 4 4 4 4 4 4 3 4 4 5 6 7 8 9 9 10 10 11 11 11 12 12 12 13 13 13 13 13
3 3 3 2 1 2 4 4 5 6 5 4 4 4 4 4 5 5 5 5 5 5 5 5 6 8 9 9 8 7 6 6 6 6 5 5 5 5 5 5 5 5 6 6 6 6 6 6 7 6 5 5 5 5 4 4 4 4 4 4 4 4 4 4 3 3 3 4 5 6 7 8 9 10 10 10 11 11 11 12 12 12 12 12 13 13
3 2 2 3 2 2 4 4 3 5 5 5 5 4 4 4 4 3 3 5 5 4 5 4 4 7 8 7 7 7 6 6 6 5 5 5 5 5 5 5 5 5 5 5 6 5 6 6 6 6 5 5 5 5 4 4 4 4 4 4 4 4 4 3 3 3 3 3 4 5 6 7 8 9 10 10 10 11 11 11 12 12 12 12 12 12
3 2 2 2 3 3 4 2 0 2 3 4 4 4 5 5 4 4 3 4 5 4 5 4 3 6 7 6 7 7 6 6 5 5 5 5 5 4 4 5 5 5 5 5 5 5 5 6 6 6 5 5 5 5 4 4 3 3 3 3 3 3 3 3 3 2 2 3 4 5 6 7 7 8 9 10 10 10 10 11 11 11 11 12 12 12
2 1 1 2 2 3 3 2 1 -0 1 2 3 3 3 3 4 4 3 4 4 3 4 4 3 5 6 6 6 6 5 5 4 4 4 4 5 5 4 4 5 5 5 5 5 5 6 6 6 6 5 5 5 4 4 3 3 3 3 3 3 3 3 3 2 2 2 3 3 4 5 6 7 8 8 9 9 10 10 10 11 11 11 11 11 12
1 1 2 1 1 1 1 1 1 -0 -0 1 2 2 2 3 3 3 2 2 2 3 4 3 3 5 7 5 5 5 5 4 4 5 5 5 5 5 4 4 4 4 4 5 5 5 5 6 6 6 5 5 4 4 3 3 3 2 2 2 2 2 2 2 2 2 2 2 3 4 5 6 6 7 8 8 9 9 10 10 10 10 11 11 11 11
2 2 2 0 0 0 -0 0 1 2 1 1 1 2 2 2 2 2 2 2 1 2 3 2 2 5 6 6 5 5 5 5 6 6 6 6 5 4 4 4 4 4 4 4 5 5 5 5 5 5 5 4 4 4 3 2 2 2 2 2 2 2 2 2 1 1 1 2 2 3 4 5 5 6 6 7 8 9 9 9 10 10 10 10 10 11
2 2 3 1 1 2 2 2 3 4 3 1 1 1 1 1 1 2 2 2 2 2 2 2 3 3 4 5 6 6 6 6 6 7 7 6 5 4 4 4 4 4 4 4 4 4 5 5 5 5 4 4 3 3 2 2 2 1 1 1 1 1 1 1 1 1 1 1 2 3 3 4 4 4 5 6 7 8 8 9 9 9 10 10 10 10
0 0 2 2 2 3 3 4 4 4 3 2 2 2 2 2 1 1 1 2 3 2 1 3 3 2 3 4 5 5 6 6 6 7 7 6 5 4 4 4 4 4 4 4 4 4 4 4 4 4 4 4 3 2 2 2 1 1 1 1 1 0 0 0 0 1 1 1 2 2 2 2 3 4 4 4 5 6 7 8 8 9 9 9 10 10
-1 -1 1 1 1 1 2 2 3 3 3 3 3 2 2 2 2 1 0 1 2 1 1 3 3 2 3 4 5 5 5 6 6 6 6 5 4 4 4 4 4 4 4 4 4 4 4 4 3 3 3 3 3 2 2 1 1 1 1 1 0 -0 -0 -0 -0 0 0 1 1 1 1 1 2 4 4 4 4 5 6 7 7 8 9 9 9 9
-1 -1 -0 -0 -1 -0 1 1 1 2 1 2 2 3 3 3 2 1 1 1 1 1 2 3 3 3 4 5 5 6 6 6 6 5 4 4 4 4 4 3 3 4 4 4 4 4 4 3 3 3 3 2 2 1 1 1 1 0 0 -0 -0 -1 -1 -1 -1 -0 -0 0 0 0 0 0 1 3 4 4 4 4 5 5 6 7 8 8 8 9
-1 -1 -0 -0 -1 -1 0 1 1 1 1 1 1 2 2 3 2 2 1 1 1 1 1 2 2 3 5 5 6 6 6 5 4 4 4 4 4 4 3 3 3 4 4 4 4 3 3 3 3 3 2 2 1 1 0 0 -0 -1 -1 -1 -1 -1 -1 -1 -1 -1 -0 -0 -0 -1 -0 -0 -0 1 3 4 4 4 4 4 5 6 7 7 8 8
-1 -1 -1 -1 -2 -2 -0 0 0 1 1 0 0 1 1 1 2 1 1 1 1 1 1 1 1 2 4 5 5 5 4 4 4 4 4 4 4 3 3 3 3 4 4 3 3 3 3 3 3 2 2 1 1 -0 -1 -1 -1 -1 -1 -2 -2 -2 -2 -2 -1 -1 -1 -1 -1 -1 -1 -1 -1 -0 1 3 4 4 4 4 4 5 5 6 7 7
-1 -2 -1 -1 -3 -2 -1 -0 -0 0 -1 -1 0 1 1 1 2 2 2 2 2 2 2 2 2 3 5 5 5 4 4 4 4 4 4 4 4 3 3 3 3 4 4 3 3 3 3 3 2 2 1 0 -0 -1 -1 -2 -2 -2 -2 -2 -3 -3 -3 -3 -2 -2 -2 -2 -2 -2 -2 -2 -2 -1 -0 1 3 4 4 4 3 4 5 5 6 6
-1 -2 -2 -2 -2 -2 -1 -1 -1 -2 -3 -1 1 2 2 2 2 2 2 2 3 3 3 3 3 4 5 4 4 4 4 5 5 4 4 4 3 3 3 3 3 3 3 3 3 3 2 2 2 1 0 -0 -1 -1 -2 -2 -2 -2 -3 -3 -3 -3 -4 -4 -3 -3 -3 -3 -3 -3 -3 -3 -3 -2 -1 -0 1 3 4 4 3 3 4 4 5 5
-2 -2 -2 -2 -2 -3 -1 -1 -3 -4 -2 0 2 3 3 3 3 2 2 3 3 3 3 3 3 4 4 4 4 5 5 5 4 4 4 4 3 3 3 3 3 3 3 3 3 3 2 1 1 1 -0 -1 -2 -2 -2 -2 -3 -3 -3 -3 -3 -3 -4 -4 -4 -4 -4 -3 -3 -3 -4 -4 -3 -3 -2 -1 -0 1 2 3 3 3 3 3 4 4
-2 -2 -2 -2 -2 -3 -2 -3 -4 -3 -1 0 1 2 3 3 3 2 2 2 3 3 3 3 3 3 4 4 4 5 5 4 3 3 3 3 3 3 3 3 3 3 3 3 3 2 1 1 0 -0 -1 -2 -2 -2 -3 -3 -3 -4 -3 -3 -3 -4 -5 -5 -5 -5 -5 -5 -4 -4 -4 -4 -4 -3 -3 -2 -1 -0 1 2 2 3 3 2 3 4
-2 -2 -2 -2 -2 -3 -3 -3 -2 -2 -2 -1 0 2 2 3 3 2 1 2 3 3 3 3 3 3 4 4 4 4 4 3 2 2 3 3 3 2 3 3 3 3 3 3 2 1 0 -1 -1 -2 -2 -2 -3 -3 -3 -4 -4 -4 -3 -3 -3 -4 -5 -5 -5 -6 -6 -6 -5 -5 -5 -5 -4 -4 -3 -3 -2 -1 -0 0 1 2 2 2 2 3
-1 -2 -2 -3 -3 -2 -3 -3 -3 -3 -3 -1 1 2 3 3 4 3 2 2 3 4 3 3 3 3 3 4 4 4 3 2 1 2 4 4 3 2 2 3 3 3 3 2 1 -0 -1 -2 -3 -3 -3 -3 -3 -4 -4 -5 -5 -4 -3 -3 -4 -4 -5 -5 -5 -6 -6 -6 -6 -6 -5 -5 -5 -4 -4 -3 -2 -2 -1 -1 0 1 2 2 2 2
-2 -2 -2 -3 -3 -3 -3 -4 -4 -4 -2 -0 2 3 3 3 4 4 1 0 3 4 4 4 3 3 4 4 4 3 2 1 1 3 4 4 3 2 2 2 2 2 2 1 -0 -1 -2 -3 -3 -4 -4 -4 -4 -5 -5 -5 -5 -4 -4 -4 -4 -5 -5 -6 -6 -7 -7 -7 -7 -6 -6 -5 -5 -5 -4 -4 -3 -2 -2 -2 -1 0 1 1 2 2
-3 -3 -2 -3 -3 -3 -3 -4 -3 -3 -1 0 1 2 3 3 4 2 -1 -0 3 4 4 4 4 3 4 4 3 2 2 1 2 4 4 4 3 2 2 2 2 1 0 -1 -2 -2 -3 -4 -4 -4 -4 -5 -6 -6 -6 -6 -5 -5 -5 -5 -5 -5 -6 -7 -7 -7 -7 -7 -7 -7 -6 -6 -5 -5 -4 -4 -3 -3 -3 -2 -1 -0 0 1 2 2
-4 -4 -3 -4 -3 -3 -3 -4 -4 -3 -1 1 2 2 3 3 1 -1 -1 1 3 4 4 4 4 4 4 3 3 2 2 3 3 4 4 3 2 1 1 2 2 1 -0 -2 -3 -4 -4 -4 -4 -4 -5 -6 -7 -7 -7 -7 -6 -5 -6 -6 -6 -7 -7 -8 -9 -8 -8 -8 -7 -7 -7 -6 -6 -5 -5 -4 -3 -3 -3 -2 -1 -0 0 1 1 1
-4 -4 -4 -4 -4 -3 -3 -3 -4 -3 -1 1 1 2 2 0 -1 -1 1 4 3 3 4 4 4 4 4 3 2 3 3 3 3 3 2 2 2 1 1 1 1 -1 -2 -3 -4 -4 -4 -4 -4 -5 -6 -7 -8 -8 -8 -7 -7 -6 -6 -7 -7 -8 -9 -9 -10 -10 -9 -9 -8 -8 -8 -7 -6 -6 -5 -4 -4 -4 -3 -2 -1 -0 0 0 1 1
-3 -4 -4 -4 -3 -3 -4 -4 -5 -3 -2 -1 -1 -0 0 -0 -2 -2 -0 2 3 3 3 3 3 3 3 2 2 3 3 3 2 2 2 1 2 2 1 0 -0 -2 -3 -4 -5 -5 -4 -4 -5 -5 -6 -8 -8 -8 -9 -8 -8 -8 -8 -8 -8 -10 -10 -11 -11 -11 -10 -9 -9 -8 -8 -8 -7 -6 -5 -4 -4 -4 -3 -3 -2 -1 -0 -0 0 0
-2 -3 -4 -3 -2 -3 -4 -4 -3 -3 -3 -3 -2 -2 -2 -3 -5 -7 -6 -2 0 1 2 2 3 3 3 2 2 2 2 2 1 2 1 1 1 2 0 -0 -0 -2 -3 -4 -5 -6 -5 -5 -5 -5 -7 -8 -8 -9 -9 -9 -9 -9 -9 -9 -10 -11 -12 -12 -12 -12 -11 -10 -10 -9 -9 -9 -8 -7 -6 -5 -5 -4 -3 -3 -3 -2 -1 -0 -0 0
-3 -3 -3 -3 -2 -2 -3 -2 -2 -3 -5 -5 -5 -6 -7 -8 -9 -10 -9 -7 -4 -1 1 2 3 3 3 2 2 2 2 1 1 1 1 1 1 0 -1 -2 -2 -3 -4 -5 -6 -6 -6 -6 -6 -6 -7 -8 -9 -9 -10 -10 -10 -10 -11 -11 -12 -12 -12 -13 -13 -13 -12 -11 -11 -10 -10 -10 -9 -8 -7 -6 -5 -4 -3 -3 -3 -2 -1 -1 -0 -0
-6 -6 -4 -3 -3 -2 -2 -3 -4 -6 -7 -7 -8 -9 -10 -10 -11 -11 -11 -9 -8 -5 -2 -0 1 2 2 1 1 1 1 1 1 0 1 1 -1 -2 -3 -4 -4 -5 -6 -6 -7 -7 -7 -6 -7 -6 -7 -8 -10 -10 -11 -11 -12 -12 -12 -13 -13 -13 -13 -14 -15 -14 -13 -12 -12 -11 -11 -10 -9 -8 -8 -7 -6 -5 -4 -3 -3 -3 -2 -1 -1 -0
-8 -9 -6 -4 -4 -4 -3 -5 -7 -9 -9 -9 -9 -10 -11 -12 -12 -13 -12 -11 -10 -8 -5 -2 -2 -1 -0 -0 -0 0 -0 -0 -0 -0 -1 -1 -3 -4 -5 -5 -6 -6 -7 -8 -8 -8 -8 -7 -7 -7 -8 -9 -10 -11 -12 -12 -13 -13 -15 -15 -15 -14 -14 -15 -15 -15 -14 -13 -13 -12 -11 -10 -10 -9 -8 -8 -7 -5 -5 -4 -3 -3 -2 -2 -1 -0
-10 -11 -8 -6 -6 -5 -4 -8 -11 -10 -9 -10 -11 -12 -12 -13 -13 -13 -13 -12 -12 -11 -8 -6 -6 -5 -4 -3 -2 -1 -1 -1 -1 -1 -2 -4 -5 -6 -6 -6 -7 -7 -8 -9 -10 -10 -9 -9 -8 -8 -9 -10 -11 -12 -13 -14 -14 -15 -17 -17 -16 -16 -17 -16 -16 -16 -15 -14 -13 -13 -12 -11 -10 -10 -9 -8 -7 -7 -6 -5 -4 -3 -3 -2 -2 -1
-14 -12 -11 -10 -9 -6 -5 -10 -13 -10 -6 -9 -12 -13 -13 -14 -14 -14 -13 -13 -13 -13 -11 -9 -9 -9 -9 -8 -5 -3 -2 -3 -2 -3 -5 -5 -6 -7 -7 -7 -8 -9 -10 -11 -11 -11 -11 -10 -9 -10 -10 -11 -12 -13 -14 -15 -15 -16 -17 -17 -16 -17 -18 -17 -17 -16 -15 -15 -14 -13 -12 -12 -11 -10 -10 -9 -8 -8 -7 -6 -5 -4 -3 -3 -2 -2
-16 -14 -14 -12 -8 -6 -9 -14 -15 -12 -9 -11 -13 -14 -14 -15 -15 -15 -14 -14 -14 -15 -14 -12 -10 -10 -12 -12 -9 -6 -5 -6 -6 -6 -7 -7 -7 -8 -8 -9 -10 -11 -12 -12 -12 -12 -12 -11 -11 -11 -12 -12 -13 -15 -15 -16 -16 -17 -17 -17 -17 -19 -19 -19 -18 -17 -15 -15 -14 -14 -13 -13 -12 -11 -10 -10 -9 -9 -8 -7 -6 -5 -4 -3 -3 -2
-18 -19 -19 -15 -11 -12 -15 -17 -18 -17 -16 -15 -15 -15 -16 -17 -17 -16 -16 -15 -15 -15 -16 -15 -13 -12 -13 -13 -12 -10 -9 -9 -8 -8 -9 -9 -9 -9 -10 -11 -12 -13 -13 -14 -13 -13 -13 -12 -12 -12 -13 -14 -15 -16 -16 -17 -17 -18 -18 -18 -19 -20 -20 -20 -19 -17 -16 -15 -15 -15 -14 -13 -13 -12 -11 -11 -10 -10 -9 -7 -6 -5 -4 -3 -3 -3
Height
803 802 800 794 790 792 792 791 788 789 796 798 797 795 792 790 787 787 791 790 792 793 783 778 776 771 771 771 771 772 770 768 767 767 766 765 765 764 763 762 762 761 760 760 760 761 761 760 760 760 759 759 758 757 757 757 757 757 758 759 758 760 761 762 762 763 763 764 764 765 766 766 767 768 769 770 771 774 775 776 778 779 780 781 781 782
806 801 794 791 791 792 793 794 794 796 800 801 800 797 793 793 789 788 793 790 791 795 786 778 777 772 770 770 769 771 771 767 765 766 765 763 762 761 760 760 759 758 758 758 758 757 758 756 756 756 755 755 754 753 753 753 753 754 754 754 754 756 757 756 757 758 758 758 759 760 759 760 761 762 764 765 766 769 770 772 774 775 775 776 776 778
803 796 789 791 794 795 796 797 799 800 801 801 799 798 794 791 789 789 793 792 793 794 785 778 779 774 770 770 767 768 768 763 761 762 762 761 760 759 758 757 757 757 756 755 755 753 753 752 751 752 751 751 751 750 751 751 751 752 751 751 752 752 752 752 753 753 753 754 755 755 756 757 757 757 759 760 762 764 765 767 769 770 770 771 772 773
794 789 792 796 797 798 799 801 803 802 802 800 797 797 793 788 792 793 792 794 794 791 785 782 782 774 768 769 764 761 760 758 758 758 757 757 757 756 756 756 756 755 754 753 751 750 749 748 747 747 748 749 750 750 749 750 750 749 749 749 749 749 749 749 750 750 751 752 753 753 754 755 755 755 756 757 759 760 762 763 764 764 765 766 768 769
791 789 798 800 799 800 800 801 804 802 798 797 796 796 792 791 797 796 792 794 792 788 786 787 785 767 755 762 759 753 754 753 754 754 753 753 753 754 754 753 754 753 752 750 748 747 746 745 746 746 746 747 748 748 748 748 748 747 746 746 746 746 746 747 747 748 749 750 750 751 752 752 752 752 753 754 754 755 757 757 757 758 760 762 764 766
795 794 799 801 801 801 800 799 800 799 796 793 792 793 794 794 797 798 796 796 797 792 782 785 786 757 738 752 754 750 752 750 750 753 752 750 750 751 751 749 749 749 748 748 747 746 746 746 747 746 746 746 746 746 746 745 745 744 743 743 743 743 743 743 743 745 746 746 746 747 748 748 748 747 747 747 748 749 750 750 750 752 755 757 759 762
797 799 801 801 800 800 801 798 795 798 798 793 788 788 793 794 796 799 798 798 798 790 779 785 792 765 740 747 750 748 753 751 749 751 749 748 748 747 747 746 746 746 746 748 748 748 749 748 748 747 747 746 745 745 745 744 743 742 741 740 740 739 738 738 738 740 741 741 741 742 742 741 741 740 739 741 743 745 745 747 747 749 750 752 754 756
797 802 804 802 801 801 799 793 791 797 798 793 789 791 793 793 796 799 797 797 793 787 783 785 792 784 760 748 746 745 752 754 751 751 748 747 747 744 745 747 748 749 750 750 751 751 751 751 749 749 748 747 746 744 743 742 741 740 739 738 736 735 735 734 734 735 735 736 736 736 736 736 735 735 735 738 739 740 741 743 744 746 747 747 748 751
799 801 800 801 801 797 792 788 789 795 796 792 792 797 795 794 797 797 796 797 793 795 797 785 784 788 766 748 749 747 749 755 752 749 746 742 742 745 749 753 753 754 754 753 754 753 753 752 751 750 749 747 746 744 742 740 739 738 736 735 734 732 732 731 731 730 730 731 732 732 731 731 731 732 733 735 735 735 737 738 739 742 743 743 744 745
801 801 802 802 798 791 788 790 792 795 794 791 795 797 795 797 797 797 800 799 797 803 802 785 781 788 766 743 747 749 748 751 746 742 741 739 745 752 754 757 757 756 756 755 755 754 753 753 752 751 749 747 745 743 741 739 737 736 734 732 731 730 729 728 727 727 726 726 727 727 726 726 727 728 729 731 731 731 732 733 734 737 738 739 739 740
803 805 807 804 797 791 790 793 793 795 793 792 797 797 796 798 795 797 799 796 805 806 791 778 780 792 780 748 738 743 741 740 739 738 738 741 750 756 756 758 759 757 757 757 755 754 753 752 751 750 748 746 744 742 740 738 736 734 732 730 729 727 726 725 724 723 723 722 722 721 721 722 722 723 725 726 726 726 727 727 729 731 732 734 735 735
808 809 804 799 796 793 795 797 794 796 796 796 799 798 803 801 792 799 799 801 816 800 774 771 775 789 788 752 730 736 736 734 737 737 737 744 753 757 759 760 759 759 758 757 755 753 752 750 750 749 747 744 742 741 739 737 736 733 731 729 726 725 724 723 721 720 719 719 718 717 717 718 718 719 720 719 719 721 722 722 724 726 727 729 730 732
798 801 800 797 795 795 797 797 797 799 798 800 801 804 814 806 799 807 796 796 809 786 768 773 772 781 779 746 727 732 735 734 734 736 738 747 755 758 760 760 759 760 758 757 756 754 752 750 749 749 747 745 742 741 739 737 735 733 730 728 725 723 722 721 719 717 716 715 714 714 713 714 714 715 715 714 714 715 716 716 718 721 722 723 724 726
786 789 801 801 792 792 793 789 791 796 795 799 799 803 810 804 812 818 793 784 787 768 766 773 770 775 763 738 735 739 742 742 739 742 746 750 756 759 760 760 760 759 758 757 756 754 753 751 750 750 748 746 744 742 740 737 735 732 729 727 724 722 720 718 717 715 713 712 711 711 710 710 710 710 710 711 711 711 711 711 712 714 716 717 718 719
790 780 787 794 787 787 789 783 781 784 788 793 791 796 797 787 795 798 777 775 772 756 762 772 776 773 747 737 750 751 750 752 748 750 753 754 757 758 759 759 758 758 757 757 756 755 754 752 752 751 749 747 745 743 741 737 735 732 729 726 723 721 718 716 714 712 711 709 708 707 706 706 706 706 706 706 707 707 708 708 708 708 710 711 712 713
807 787 782 790 789 788 788 783 781 783 787 789 789 797 795 780 778 779 771 774 776 771 769 768 767 755 733 738 754 753 753 755 753 754 754 756 758 757 758 758 758 759 758 757 757 756 755 754 753 752 749 748 745 743 741 737 734 731 728 725 722 720 717 714 712 710 708 707 705 704 703 702 702 702 702 702 702 703 704 705 704 703 705 706 708 710
801 791 791 795 792 791 789 784 785 785 781 783 792 796 788 780 781 785 783 776 782 788 773 758 757 747 735 740 745 748 755 756 756 756 755 757 757 756 758 759 759 759 758 758 757 756 755 754 753 752 750 748 746 744 740 736 734 731 728 725 721 719 716 713 711 709 706 704 702 701 699 699 699 698 697 697 698 699 700 701 700 700 701 703 705 706
786 784 790 794 789 788 792 790 788 787 780 782 792 788 782 787 788 791 793 784 786 790 766 749 754 749 741 740 740 747 754 756 758 757 756 757 756 757 759 759 760 759 758 758 757 756 755 753 753 751 750 748 746 743 739 736 733 731 728 725 721 718 714 712 709 707 705 702 700 698 697 696 695 694 693 693 694 696 696 697 697 697 698 699 700 702
791 787 786 793 790 786 793 794 787 786 786 784 787 782 781 790 787 786 795 792 789 788 767 750 749 744 736 729 735 747 752 755 759 757 757 758 756 758 759 759 760 758 758 757 755 755 753 752 751 749 748 745 742 740 737 735 733 730 728 724 721 718 714 711 708 705 704 701 699 696 694 693 692 691 690 689 690 692 691 691 692 693 694 695 696 699
794 791 788 794 795 789 791 792 784 782 787 790 789 785 782 785 780 775 780 779 778 778 768 756 749 740 729 719 727 743 749 753 756 756 758 758 757 759 759 759 760 758 758 756 754 754 752 751 750 747 746 744 741 739 736 734 732 729 727 723 720 717 713 710 707 704 702 699 697 694 692 691 689 688 687 686 686 687 686 687 688 689 690 691 693 695
794 796 793 795 800 796 787 783 778 774 780 786 789 789 787 786 785 783 780 773 773 776 768 763 753 734 726 729 734 742 749 752 754 755 758 759 759 760 759 759 759 757 757 756 754 754 751 750 749 746 746 743 741 740 736 734 731 727 725 721 718 715 712 709 706 702 700 697 695 693 690 688 687 686 684 683 683 682 682 684 685 686 687 688 689 690
793 797 795 791 795 791 779 779 782 776 774 777 778 781 782 781 783 790 789 773 772 777 769 770 765 738 730 741 741 742 749 752 753 756 757 759 760 760 760 759 758 757 757 755 754 753 751 750 748 746 745 743 741 739 735 733 730 726 723 720 717 714 712 709 705 702 699 695 693 691 688 686 684 683 682 680 679 678 678 680 680 682 683 684 685 686
787 793 794 788 785 781 779 787 793 789 784 780 776 775 775 777 778 783 784 771 770 776 768 771 772 748 736 743 741 743 750 752 755 757 757 758 759 759 759 758 758 757 755 754 753 752 751 749 748 746 744 743 741 738 735 732 729 726 723 720 717 714 712 709 705 702 698 695 692 689 687 685 682 681 680 678 677 675 675 676 677 678 679 680 682 683
789 794 793 787 782 781 783 787 791 795 794 786 781 780 780 779 776 775 777 773 774 775 768 770 768 748 740 746 745 746 751 753 756 756 756 757 756 756 758 756 756 755 754 753 752 750 750 748 746 745 744 742 740 737 734 731 729 727 723 720 718 714 712 709 705 702 698 695 691 688 686 684 681 680 678 676 675 673 673 673 673 674 675 677 678 679
789 789 787 790 791 791 792 790 790 795 796 787 779 779 782 780 779 782 785 786 785 777 771 773 764 744 739 747 749 750 753 754 754 753 752 753 753 754 755 754 754 754 752 752 750 749 748 746 745 744 742 741 738 736 734 731 728 726 723 721 718 714 711 708 705 702 698 695 691 687 685 683 681 679 677 675 673 671 671 670 670 670 671 673 675 676
779 775 776 788 790 788 789 786 780 776 780 784 781 779 780 781 782 784 784 786 783 775 772 771 762 747 741 743 746 748 750 750 748 747 747 748 750 752 753 753 753 753 752 750 749 747 746 744 743 741 740 740 737 735 733 731 728 726 723 721 718 715 711 707 704 701 698 695 691 687 684 682 680 678 676 674 672 670 669 668 667 667 668 670 672 673
775 770 767 772 770 765 764 762 758 757 764 776 779 775 776 777 778 778 776 775 771 769 766 761 761 759 748 742 743 744 745 745 742 742 742 744 748 750 751 752 752 751 750 749 747 747 745 743 742 740 740 739 737 735 733 731 728 726 723 721 718 715 711 707 704 701 698 695 691 688 684 681 679 678 676 674 671 669 668 666 665 665 665 667 668 670
779 775 766 765 761 755 753 750 748 752 758 763 766 766 767 769 772 776 774 766 763 768 764 755 760 763 750 744 745 743 742 741 739 739 739 742 746 748 749 751 750 749 748 747 746 745 744 743 741 740 739 739 738 736 733 731 728 726 723 721 718 715 712 708 704 701 698 695 691 688 685 681 678 676 675 673 671 669 667 665 664 663 663 664 665 666
781 779 771 769 768 762 759 757 753 753 755 755 755 757 757 759 763 770 771 764 762 767 761 751 754 754 746 742 741 738 738 736 733 736 739 742 746 747 748 749 748 747 746 745 745 744 743 742 741 740 739 739 738 736 733 730 728 725 723 721 719 715 711 708 704 701 698 695 691 688 685 681 678 675 673 672 670 668 666 664 663 662 661 662 662 663
782 781 773 773 775 770 766 765 761 760 759 756 755 752 750 751 754 759 762 760 759 760 756 751 750 745 739 736 731 730 732 731 732 737 740 742 743 744 746 747 746 745 743 743 743 742 742 741 740 740 740 739 737 735 732 730 727 726 724 722 719 715 711 708 705 701 698 695 692 688 684 681 678 674 672 670 669 668 666 664 662 661 660 660 660 661
780 778 771 772 776 772 766 764 761 759 757 757 756 753 749 749 751 755 758 757 758 759 755 751 748 740 734 730 726 727 731 732 735 737 737 737 738 741 744 745 744 742 741 741 741 740 740 738 737 738 738 736 735 733 731 730 728 726 724 722 719 715 711 708 705 702 699 695 693 689 685 681 678 674 671 669 668 667 666 664 662 660 659 659 658 659
775 775 771 773 778 772 764 763 760 756 755 756 754 754 754 753 751 753 754 753 752 753 751 750 747 739 732 728 725 727 732 734 733 732 732 734 735 739 742 742 741 739 738 739 739 739 737 736 736 736 735 734 732 732 732 730 728 725 723 721 718 714 711 708 705 703 699 696 693 690 686 682 678 675 672 668 667 666 665 664 662 660 659 658 657 657
770 773 771 772 775 770 761 760 758 757 759 756 748 747 748 749 746 744 743 742 742 742 743 743 738 731 726 724 723 725 729 729 726 726 729 731 734 737 738 738 737 735 735 737 737 737 735 734 735 735 734 733 732 732 732 730 727 724 722 720 717 713 710 708 706 704 700 696 694 691 688 683 679 676 672 668 666 664 663 663 662 660 659 657 657 656
767 770 770 769 772 769 761 758 760 762 758 746 737 737 738 737 738 736 734 734 733 733 732 730 725 723 723 722 721 720 721 720 721 723 726 729 731 733 733 733 733 732 733 734 734 734 734 734 734 734 733 733 732 731 730 729 726 723 720 719 716 713 710 708 706 704 701 698 695 692 689 685 680 677 673 669 666 663 661 661 661 660 659 657 657 656
765 767 766 765 768 766 760 761 761 754 743 733 728 730 729 728 729 729 727 724 723 724 725 724 722 722 721 719 716 715 714 716 720 722 723 725 727 728 729 730 729 729 730 731 732 732 733 733 733 733 732 732 731 730 729 727 724 721 719 717 715 712 711 709 707 705 702 699 696 693 690 686 682 678 674 670 666 663 660 659 659 659 658 657 656 655
759 762 761 760 762 762 762 762 753 739 735 733 728 723 723 724 724 726 724 719 716 719 720 720 719 718 716 716 714 712 713 716 720 720 719 720 722 723 726 725 725 726 726 727 729 730 731 732 732 731 732 731 731 730 728 726 723 720 718 716 715 713 711 709 707 705 703 700 697 694 691 687 683 679 675 671 667 663 660 658 657 657 657 656 655 654
752 754 755 757 756 757 761 756 743 737 739 737 730 724 721 719 719 722 722 715 710 712 714 714 715 714 714 713 710 710 713 718 720 716 712 714 717 719 722 721 721 722 723 725 727 729 730 731 731 731 730 730 730 729 727 725 723 720 718 716 715 713 711 710 708 706 703 700 697 694 692 688 685 680 676 672 667 664 660 657 655 655 655 655 655 654
745 747 750 754 751 749 754 753 746 744 740 730 723 719 715 712 710 713 714 707 702 704 707 709 711 711 710 709 706 708 714 719 719 711 704 707 712 714 716 717 716 718 721 723 726 728 730 730 730 730 729 729 729 728 726 725 722 720 718 717 715 714 712 710 708 706 704 700 698 695 692 689 686 682 677 673 668 664 660 657 655 653 653 653 653 653
741 740 741 748 748 746 751 752 747 742 732 720 714 710 709 709 707 708 711 703 695 698 700 702 706 706 704 703 703 707 715 719 715 704 698 702 707 709 710 712 713 717 720 722 725 727 728 729 729 729 729 728 728 727 725 724 722 720 719 717 716 714 712 711 709 706 704 701 698 696 694 690 687 683 678 674 668 664 660 657 654 652 651 651 651 651
744 743 741 744 744 743 746 747 742 735 725 717 713 708 706 704 703 709 713 701 692 695 697 696 698 697 695 697 701 706 710 709 704 696 694 698 703 705 707 709 712 716 719 722 725 726 727 728 729 729 729 728 727 726 724 723 721 720 719 718 717 715 713 711 709 707 704 701 698 696 694 691 687 683 679 674 668 664 660 657 654 652 650 649 649 648
742 743 742 742 741 739 742 743 739 731 720 713 710 706 703 706 711 712 705 694 691 693 690 688 690 689 690 694 699 702 700 697 695 694 694 698 701 703 707 709 712 715 719 722 725 726 727 728 728 729 729 729 728 726 724 723 721 720 719 718 717 716 714 712 709 706 703 701 698 696 694 691 686 682 678 673 668 664 660 656 654 652 650 648 648 647
738 740 740 740 740 738 736 737 738 729 717 712 710 705 705 713 718 709 694 687 690 688 683 684 686 686 690 695 697 697 695 693 694 695 697 700 702 703 707 710 712 716 719 722 724 726 727 728 728 729 729 729 728 726 724 723 722 720 719 718 717 716 714 711 708 706 703 701 699 697 694 690 685 680 677 673 668 664 660 656 654 651 650 648 647 646
729 735 736 733 732 734 735 737 737 729 718 716 717 713 710 712 714 711 703 694 689 687 685 686 687 688 690 693 693 693 691 691 694 696 698 701 702 703 706 709 712 716 719 722 724 725 726 727 728 728 729 729 728 727 725 723 722 721 720 718 716 715 713 710 708 706 704 701 699 696 693 688 683 679 676 672 669 664 660 656 654 651 649 648 647 646
721 726 729 723 721 728 733 730 725 721 719 720 720 719 720 721 723 727 724 710 698 693 690 687 687 688 688 688 688 688 689 691 694 695 698 700 701 703 707 710 713 716 720 722 724 725 725 726 726 727 728 729 729 728 726 724 723 721 720 718 716 714 711 709 707 705 703 701 698 694 691 686 682 678 675 672 669 665 660 656 654 651 649 648 647 646
719 719 721 717 713 715 719 716 714 719 726 727 727 728 731 732 733 734 732 723 712 704 697 690 687 687 686 687 687 687 688 691 693 695 697 699 701 704 708 712 715 718 720 723 724 725 725 726 726 726 727 728 728 728 727 726 725 723 721 718 716 713 710 708 706 704 702 700 697 693 689 685 681 677 675 672 670 666 661 657 654 652 650 648 647 646
725 726 721 718 716 713 713 715 720 728 733 733 735 739 739 738 739 738 736 732 724 714 705 697 691 688 687 687 688 688 689 691 693 695 696 699 702 707 710 714 717 720 722 724 725 726 726 726 727 726 726 727 727 726 726 726 726 724 723 720 716 713 710 708 705 703 701 699 696 693 689 685 680 677 674 672 670 667 662 658 655 653 651 649 647 646
734 739 728 721 722 720 717 723 731 737 738 737 738 740 741 741 743 743 741 737 730 721 711 702 697 694 691 691 690 690 690 691 693 695 697 700 705 710 713 716 720 722 724 725 726 726 727 727 727 727 727 727 727 725 725 724 724 724 722 720 717 714 711 708 705 703 701 698 695 693 689 685 681 677 674 672 670 667 662 658 656 654 652 650 648 647
739 743 732 729 731 723 718 731 743 741 736 739 743 744 745 746 745 744 743 739 734 726 717 709 704 700 697 696 695 693 693 694 694 695 699 703 708 712 716 718 721 724 725 727 727 727 728 728 728 728 728 729 728 726 725 724 723 721 719 717 715 713 710 709 706 703 701 699 696 693 690 686 682 678 675 672 670 667 663 659 656 654 652 651 649 648
754 748 745 746 740 725 721 738 748 735 725 734 745 749 752 753 750 747 744 740 735 730 723 717 712 709 706 704 701 697 697 697 697 698 702 707 711 715 718 721 723 726 727 728 729 729 729 729 729 729 730 730 729 727 726 724 723 721 718 715 712 709 708 706 704 702 701 699 696 693 690 686 683 680 677 673 671 668 664 660 657 654 652 651 650 649
762 757 759 750 734 726 738 757 763 749 738 743 751 754 756 757 755 750 746 742 739 737 732 725 719 715 713 711 708 704 703 704 704 704 707 711 715 718 721 724 726 728 729 730 731 731 731 731 731 731 732 731 730 728 727 726 724 721 718 715 712 709 707 705 702 700 699 697 695 692 689 686 683 681 678 675 672 668 662 657 655 653 652 650 649 648
775 777 776 761 746 748 763 775 777 771 764 761 761 761 761 761 759 755 750 747 745 743 740 734 728 722 720 718 716 713 711 711 711 710 712 716 720 722 725 727 729 730 732 733 733 733 733 733 733 733 733 732 731 729 727 726 725 722 719 716 713 711 709 707 704 702 699 697 695 693 690 688 685 682 679 677 674 670 664 657 652 650 650 650 649 647
Wind_Speed
1 3 4 5 4 5 7 8 10 6 3 3 5 7 9 9 8 4 2 3 1 5 11 13 16 16 15 13 11 11 12 15 15 13 13 12 11 11 11 13 12 13 12 10 16 22 22 24 26 25 27 28 28 30 30 30 30 30 30 31 32 32 32 34 35 35 34 30 27 27 32 35 36 37 39 39 39 37 33 33 36 37 37 37 37 39
2 4 6 6 5 5 6 7 8 6 4 6 6 8 9 8 9 5 3 6 5 6 11 13 16 17 16 14 12 11 12 16 15 14 15 15 15 13 13 15 14 13 11 10 15 19 23 27 28 27 28 28 29 31 33 33 34 34 33 34 34 34 34 36 38 38 37 35 32 29 30 32 34 36 37 38 38 40 40 39 38 39 39 40 40 38
4 5 5 5 6 6 6 5 6 7 7 7 6 7 8 6 6 5 3 4 5 6 9 12 13 15 15 14 15 14 15 16 16 16 16 16 17 15 14 14 13 13 13 13 15 16 19 24 28 29 28 27 29 32 33 31 32 33 33 34 34 35 36 38 39 40 41 40 39 36 32 31 33 34 34 36 37 39 42 41 41 42 42 42 43 41
3 2 1 2 5 7 7 6 6 6 6 7 7 7 8 5 4 4 3 2 4 6 9 13 13 14 14 14 17 18 18 17 17 18 18 16 17 16 14 13 13 14 15 16 16 16 18 21 23 24 25 24 23 26 26 26 28 30 32 33 34 35 37 36 37 39 41 41 41 41 37 31 29 27 27 32 35 37 41 43 42 43 44 44 44 42
7 2 3 3 5 7 8 7 7 7 6 8 9 9 8 6 6 7 6 4 6 9 11 12 11 12 12 12 14 15 16 17 17 18 18 15 15 14 14 14 14 15 15 16 17 16 16 17 17 17 18 19 19 20 21 24 26 28 30 31 32 34 35 34 35 38 39 38 37 34 31 26 23 22 21 26 31 34 39 44 45 45 44 43 42 41
8 3 3 5 5 6 8 7 8 7 5 7 9 11 11 10 10 10 11 9 8 8 6 5 7 10 7 8 10 7 8 13 12 13 16 15 13 12 12 13 13 14 14 13 14 14 13 14 15 16 16 15 16 16 16 20 22 22 24 25 27 29 31 34 36 38 37 35 32 27 24 23 23 22 23 27 29 31 36 43 48 47 45 44 43 42
4 0 3 7 7 7 7 7 8 8 6 6 4 7 10 11 11 10 10 8 6 6 2 2 5 10 7 5 8 6 6 9 9 10 13 12 11 11 11 10 10 10 9 7 7 8 9 11 12 12 13 13 14 15 15 17 17 17 19 20 23 25 27 31 35 37 35 33 30 27 26 26 26 26 26 27 29 29 32 39 45 45 45 47 46 46
3 2 3 6 7 8 8 8 7 9 7 4 3 4 4 6 7 7 8 7 6 8 6 5 7 10 11 4 5 8 6 4 7 9 9 10 12 11 6 4 5 6 7 6 6 6 8 9 10 11 12 13 14 16 16 16 16 16 17 18 20 21 23 26 30 34 34 31 28 28 29 29 29 29 26 24 27 30 30 33 38 40 41 44 46 48
3 3 4 5 7 8 8 5 5 9 8 2 4 3 2 1 3 4 6 7 7 8 9 10 9 8 10 2 5 6 5 3 6 8 9 11 9 2 4 7 7 7 8 7 7 7 8 9 11 12 12 13 14 15 15 16 16 16 16 16 17 19 20 22 26 29 31 31 29 28 28 28 28 28 27 25 25 28 29 30 33 36 37 38 42 46
2 1 0 3 7 7 5 3 5 9 8 1 3 0 1 1 4 5 5 6 7 8 10 11 8 6 10 5 4 6 6 6 8 7 8 7 2 7 7 7 7 6 6 6 7 7 8 9 11 12 12 13 13 14 15 16 17 17 16 16 16 18 18 20 23 25 28 29 29 29 29 29 28 26 26 26 26 27 28 29 31 33 34 34 36 39
2 2 2 4 8 6 3 3 5 8 6 0 1 4 5 5 6 6 6 6 5 8 13 11 9 8 9 8 6 7 5 4 5 6 7 2 8 8 6 7 6 6 5 5 6 7 8 10 11 13 13 15 16 15 16 17 17 18 17 16 17 17 17 19 21 23 26 27 28 30 30 30 29 28 26 26 28 28 27 28 30 31 33 34 34 34
4 5 4 3 6 6 4 5 5 5 4 3 3 5 5 5 5 4 5 5 5 8 9 6 11 12 9 8 3 5 4 5 7 8 7 3 8 7 6 6 5 5 5 6 6 7 9 11 13 15 17 18 18 18 18 19 18 18 18 18 19 18 16 17 19 21 24 25 27 29 30 30 30 29 29 29 30 29 27 29 29 28 29 31 31 33
2 5 4 1 4 8 7 5 4 4 5 6 6 5 3 3 2 3 5 5 6 8 2 7 12 11 10 15 12 4 5 9 10 7 3 8 8 7 6 5 5 5 6 6 7 7 8 9 12 14 17 18 18 19 20 19 19 18 18 19 20 20 19 17 18 19 22 24 26 28 28 30 30 30 31 31 31 30 29 28 28 28 28 28 29 33
2 2 4 3 3 8 10 6 4 6 8 9 9 7 5 3 2 4 5 4 5 8 4 9 10 6 8 13 10 4 4 4 2 5 7 9 9 7 6 5 5 6 6 7 7 7 8 9 10 13 15 16 16 18 19 18 19 18 18 19 20 21 22 20 18 18 20 22 25 27 28 29 29 30 31 32 31 30 30 28 29 32 31 29 31 36
4 3 4 6 2 6 13 10 3 3 6 9 9 8 6 5 4 4 4 4 4 4 3 8 8 6 7 2 5 5 6 7 8 10 10 9 8 6 6 6 6 7 7 7 8 8 9 9 11 12 13 14 15 17 17 17 19 19 19 20 20 21 23 22 20 18 19 21 23 24 27 28 29 29 30 31 31 30 30 28 29 34 35 34 36 41
5 6 2 3 1 4 11 9 4 3 4 6 7 8 8 6 5 5 5 4 5 6 4 5 5 6 6 3 9 7 8 9 8 10 10 9 8 6 6 7 7 8 7 8 8 8 9 9 11 12 13 14 15 16 16 17 18 20 20 21 20 21 21 22 21 20 19 19 21 23 25 27 28 29 29 29 30 29 30 29 29 33 36 35 37 41
4 4 1 2 2 5 6 4 6 6 3 4 7 7 5 1 3 6 7 6 6 8 7 6 7 8 8 3 9 10 10 9 7 9 9 8 8 8 8 7 7 7 7 7 7 8 8 9 10 11 12 14 14 15 16 17 18 18 19 21 22 21 21 21 22 21 20 19 20 22 24 26 27 30 30 30 30 29 30 30 29 30 31 32 36 40
4 4 1 4 5 4 1 1 5 6 3 4 7 5 2 1 2 4 5 5 6 9 7 8 11 10 8 5 7 11 9 8 7 7 7 8 9 8 8 7 7 7 7 7 7 8 8 8 10 12 13 14 14 14 15 17 18 17 18 19 21 22 22 22 22 20 20 19 19 20 22 25 26 29 30 30 30 28 29 30 29 30 30 30 36 41
2 4 2 4 4 2 3 2 6 6 4 3 2 1 1 3 5 6 6 5 6 9 6 8 11 10 9 6 5 9 9 9 7 6 6 7 8 8 7 8 8 8 7 8 8 8 8 9 11 13 14 17 18 17 17 17 17 17 18 19 19 21 22 22 21 21 20 19 18 18 20 22 25 27 28 29 29 28 29 31 30 30 29 30 34 39
2 4 3 2 2 0 2 5 7 6 5 1 3 3 3 4 4 5 6 5 7 9 7 7 9 8 9 6 5 9 10 9 7 6 6 6 7 7 6 7 8 8 8 8 8 9 9 11 13 14 15 17 19 18 17 17 16 16 17 18 20 22 22 22 23 22 21 20 19 18 19 21 23 25 26 27 28 29 30 30 30 29 30 33 35 36
3 4 4 1 1 2 3 6 8 8 7 6 7 6 5 4 2 3 5 5 6 8 7 7 8 6 3 1 4 9 10 8 7 6 5 5 6 6 6 7 8 8 8 8 8 9 10 12 14 14 14 15 17 17 16 16 17 17 18 19 21 22 23 24 25 24 22 23 22 20 18 19 21 23 25 26 27 29 30 29 28 28 28 32 37 38
4 3 5 4 3 7 6 1 1 5 5 7 9 8 8 7 5 6 8 7 5 7 7 7 10 7 2 3 3 7 8 7 7 6 5 4 4 4 4 6 7 8 8 8 8 9 9 11 14 14 14 15 16 17 17 16 16 18 19 21 21 22 22 24 25 25 24 24 22 20 19 18 19 21 23 25 26 27 28 28 27 27 27 30 36 38
5 2 5 7 6 7 3 3 3 3 3 4 6 6 7 7 8 10 11 8 6 8 7 7 11 9 2 3 4 6 7 7 6 4 3 2 2 2 3 4 6 8 7 8 8 7 8 10 13 13 13 14 16 16 16 16 16 17 19 20 20 21 23 25 25 24 24 23 22 21 20 18 17 19 21 23 25 26 27 27 25 27 31 34 35 37
4 2 7 9 6 3 3 1 1 2 2 4 5 4 5 7 8 9 8 6 6 8 9 9 12 9 2 3 3 5 7 5 3 2 1 2 1 1 3 5 7 9 9 8 7 7 8 11 11 11 11 13 14 14 14 15 15 16 17 18 19 21 24 25 25 24 23 22 22 21 20 19 17 17 19 21 23 24 25 26 25 27 33 35 35 36
4 5 7 8 7 5 4 6 5 2 3 5 6 6 7 8 8 4 1 3 6 10 11 11 12 8 2 3 4 6 6 6 6 7 6 6 3 2 5 6 7 9 10 9 8 8 9 10 10 9 10 12 13 13 13 14 15 15 16 18 19 20 24 26 25 24 23 21 21 20 19 19 18 17 18 20 21 22 23 24 25 29 33 34 35 36
5 7 8 7 9 10 8 8 8 8 7 4 6 9 9 10 11 6 4 7 10 11 12 11 11 9 7 7 7 6 7 9 10 10 9 7 3 2 6 7 7 8 9 10 9 10 10 10 9 9 9 11 13 13 13 13 14 15 16 17 18 19 24 26 26 24 23 21 20 19 18 18 19 18 18 18 19 20 22 23 24 29 32 33 34 35
3 6 9 11 12 13 11 10 10 10 8 7 10 15 15 14 14 10 8 11 11 10 12 12 9 11 16 18 14 11 12 14 14 14 13 8 3 3 6 7 8 8 8 9 9 9 10 10 10 9 9 11 12 12 13 13 13 14 16 18 19 20 22 24 25 25 22 21 20 19 18 18 18 19 19 18 18 18 19 21 24 28 31 32 33 35
2 6 10 15 16 15 14 14 14 13 11 12 14 17 18 18 17 13 12 14 13 10 11 9 9 14 19 18 17 16 15 15 15 15 13 7 4 5 6 8 10 10 9 9 9 10 10 10 10 9 9 10 10 11 13 13 12 13 15 17 19 20 20 22 25 24 23 21 20 19 19 18 17 17 18 18 18 18 18 19 22 26 29 31 32 34
3 4 5 10 13 14 14 16 17 15 12 13 15 16 19 20 21 17 16 17 15 11 10 9 13 17 17 16 18 18 16 17 16 12 7 5 5 6 8 8 10 10 10 10 10 10 9 9 8 8 9 9 9 10 12 12 12 14 15 17 18 19 20 22 23 23 22 21 19 21 22 20 18 16 17 17 17 17 18 18 19 23 27 29 31 33
3 3 4 8 11 13 14 15 17 18 16 14 16 18 18 19 20 19 18 18 18 15 13 13 17 19 16 17 20 17 14 15 11 6 5 8 8 7 8 9 9 10 10 10 10 9 9 8 8 6 7 8 9 10 10 11 13 14 15 17 18 19 20 21 22 21 21 21 21 23 24 22 20 18 16 16 17 17 17 18 19 22 25 27 29 31
4 5 7 9 9 11 13 14 16 19 19 18 18 20 21 19 17 16 15 15 15 14 16 18 20 18 14 17 21 16 9 6 6 8 11 12 9 6 7 9 9 9 9 9 10 9 9 9 7 6 6 8 9 10 10 11 13 13 14 16 18 19 20 20 20 21 21 21 22 23 24 23 21 20 17 15 16 17 17 17 18 20 22 24 26 29
5 5 6 7 9 9 9 12 17 19 19 20 20 20 20 19 16 13 12 14 14 14 17 19 16 12 12 16 19 13 6 6 13 16 15 11 7 6 8 9 9 9 9 9 8 9 9 8 6 6 7 9 9 9 10 12 13 13 14 16 17 19 21 20 19 20 21 21 22 22 22 22 22 21 19 16 14 16 17 17 17 18 19 21 24 26
5 5 6 7 9 9 9 12 15 16 16 16 14 16 19 20 20 18 16 18 19 17 15 14 12 13 15 17 17 13 9 13 18 15 11 9 7 7 9 10 10 10 9 8 8 8 8 6 5 6 8 9 9 10 11 12 12 12 14 15 15 18 20 19 19 20 20 21 21 22 22 21 20 20 20 19 15 13 15 17 16 16 18 20 22 24
7 8 7 7 8 9 11 12 12 13 14 9 4 9 17 21 23 23 20 20 21 19 16 16 16 16 16 16 17 17 16 16 14 10 8 8 7 9 11 11 10 10 8 7 8 8 6 4 5 6 7 8 9 10 12 12 12 12 13 12 13 17 19 19 20 20 20 20 21 21 21 21 20 20 20 21 18 13 12 15 16 15 17 18 19 20
9 9 8 7 7 9 10 11 12 12 9 6 6 12 17 20 22 24 24 24 24 22 21 21 20 19 18 18 19 19 18 14 9 8 9 9 10 11 10 10 11 10 8 8 8 7 4 4 5 6 6 7 9 11 12 13 13 13 13 11 12 15 18 18 19 20 20 20 21 21 22 22 21 21 20 20 19 14 10 11 14 16 16 17 17 16
11 9 8 7 7 8 8 10 12 8 4 4 8 12 15 18 19 21 22 23 21 19 19 21 21 22 23 22 20 19 16 9 5 8 11 12 13 12 11 11 11 10 9 8 7 6 4 4 5 5 5 6 7 10 11 13 14 14 13 11 11 13 16 16 17 19 20 21 21 22 23 22 22 21 21 20 19 15 11 9 10 13 15 15 16 16
13 10 8 8 7 7 8 10 11 10 9 8 7 7 11 14 15 14 15 16 17 18 19 19 21 23 22 21 22 18 10 5 5 10 14 14 13 13 13 14 12 10 8 7 7 5 4 4 4 4 4 4 6 8 10 12 13 12 12 11 10 11 13 14 16 19 21 22 23 24 23 22 22 22 21 20 18 16 14 11 9 10 12 14 15 16
15 12 9 9 8 7 8 9 9 11 12 10 9 12 14 15 16 15 13 13 14 18 19 18 20 21 20 21 21 14 6 5 7 11 13 13 13 14 15 15 12 10 8 8 8 7 5 4 3 1 2 3 5 9 11 11 11 10 10 10 11 12 12 13 16 19 21 24 26 26 24 22 21 22 22 21 19 17 16 14 11 9 9 11 14 15
15 13 11 10 8 7 8 9 9 9 9 9 12 14 16 17 18 17 15 13 12 14 16 17 18 19 20 20 17 9 6 6 9 11 10 10 12 13 14 12 9 8 9 9 9 8 7 6 4 3 1 3 7 10 12 11 9 8 8 9 10 12 13 14 17 19 21 25 26 25 23 22 21 21 21 20 19 17 17 15 12 10 9 10 12 14
10 9 9 10 10 10 10 9 8 7 7 9 13 14 14 17 18 18 15 10 9 12 14 14 17 19 20 17 12 9 8 9 9 9 7 9 11 10 9 9 8 9 10 10 9 8 7 7 6 5 3 3 7 10 11 11 9 7 7 8 9 11 13 16 19 20 21 23 24 23 22 21 20 21 21 20 19 18 17 15 12 11 10 10 11 12
6 6 7 8 9 12 12 9 7 6 8 11 15 15 11 10 12 15 13 4 7 13 16 16 18 19 15 11 9 7 10 12 8 2 3 8 8 7 7 7 8 10 11 10 9 8 8 8 7 7 6 4 6 9 10 10 9 8 8 8 8 11 14 17 20 21 21 22 22 22 22 21 19 20 20 19 18 18 18 15 12 11 10 10 10 11
5 4 5 6 7 8 9 8 8 6 4 6 12 11 7 6 6 9 10 6 7 13 14 11 12 12 8 8 8 9 12 12 6 3 5 7 8 8 8 7 8 10 9 9 8 7 7 8 8 8 7 5 6 8 9 9 8 9 9 9 10 12 15 17 19 20 20 20 20 21 22 21 20 19 19 18 18 18 18 16 13 12 11 11 10 10
5 4 5 6 6 6 7 7 7 5 2 5 9 6 3 5 3 5 7 7 6 7 7 4 4 6 7 8 11 14 13 9 7 6 7 8 8 8 8 8 9 9 8 8 6 5 6 7 7 9 8 6 6 6 8 8 8 9 9 10 14 16 15 18 20 19 18 19 19 20 22 22 21 19 18 19 19 18 17 17 15 12 11 10 9 9
6 6 6 6 6 6 6 7 4 2 3 6 6 4 2 4 7 9 9 9 7 6 6 4 3 6 8 10 12 14 12 7 8 9 8 8 8 7 7 8 8 8 8 7 5 4 4 4 5 7 8 7 6 6 7 7 7 9 9 12 18 19 18 20 23 20 17 17 19 21 22 23 23 20 19 19 19 17 16 16 15 13 10 9 9 8
4 5 6 6 6 5 5 5 1 3 5 6 6 5 6 9 11 11 10 10 9 8 6 5 5 6 8 9 9 9 9 8 9 10 9 8 7 7 8 8 8 9 8 7 6 5 4 3 3 5 6 7 8 7 7 6 6 7 10 14 20 22 20 20 21 20 18 18 19 21 23 25 24 20 19 20 19 16 15 15 15 13 11 10 9 9
2 3 2 3 3 2 2 2 4 5 6 6 7 7 8 10 12 12 11 10 11 12 11 7 6 6 6 6 6 6 8 8 9 9 9 8 8 9 9 9 10 9 8 7 6 5 3 3 3 4 5 7 10 10 9 7 7 6 9 14 19 21 20 20 20 20 20 19 18 18 21 23 22 21 21 21 18 16 15 13 13 14 13 10 9 9
4 5 2 1 1 3 2 2 4 4 5 7 8 8 11 12 12 12 11 10 13 15 14 9 6 6 4 2 4 5 6 7 8 8 7 8 9 10 9 9 9 9 8 8 6 5 5 4 4 5 6 8 11 11 11 9 8 8 11 14 16 17 19 20 19 18 19 20 18 17 18 19 20 21 21 21 19 18 16 13 12 12 12 12 10 9
2 5 3 1 1 3 3 3 6 6 2 8 11 11 12 14 15 14 13 13 14 15 14 10 8 7 5 4 4 3 3 5 6 8 8 8 9 9 9 9 9 9 9 9 9 8 7 6 6 6 7 9 11 11 12 10 10 14 18 19 19 18 18 20 20 17 17 17 17 17 17 17 19 20 20 20 20 19 16 15 13 13 12 12 11 10
4 4 3 1 2 4 2 4 12 7 4 7 13 14 12 14 15 15 15 15 15 16 17 13 10 8 8 8 7 3 3 4 5 9 10 9 9 9 9 10 11 11 10 9 10 10 8 7 7 7 7 9 9 10 11 10 11 18 22 23 24 22 20 21 22 18 14 14 14 15 17 17 17 19 20 21 21 20 18 17 14 13 14 13 11 11
4 2 4 2 3 2 1 6 11 7 3 4 14 17 15 14 14 14 15 17 17 17 17 14 11 10 11 12 10 6 7 7 8 10 12 10 9 10 10 11 12 11 10 10 10 10 9 8 8 7 7 8 9 10 11 9 12 19 23 23 24 24 21 21 21 17 14 14 13 15 18 18 17 18 19 20 21 22 23 23 19 13 12 13 14 15
4 4 5 4 2 2 5 8 9 6 5 8 13 15 14 13 13 14 15 16 16 16 15 14 12 11 11 13 13 11 10 9 9 12 13 12 11 13 14 13 12 11 11 11 10 10 10 8 7 7 7 8 8 10 10 9 12 18 23 24 24 23 21 20 16 14 15 16 15 17 18 18 18 19 18 18 20 21 22 24 25 20 14 11 15 18
Wind_Direction
247 220 205 227 227 211 213 222 245 277 343 290 279 273 266 268 264 247 206 223 311 284 266 258 264 267 266 263 256 263 279 279 275 271 269 269 267 268 269 273 276 276 278 276 277 282 282 279 279 277 275 274 272 270 268 264 261 258 254 250 248 248 248 244 241 239 236 230 227 228 231 231 231 234 236 236 235 234 235 235 235 235 236 236 234 234
236 241 227 224 225 218 214 222 242 255 259 253 259 267 264 264 266 266 253 243 224 249 264 261 266 268 264 264 260 254 261 268 271 271 270 270 270 268 266 267 269 271 273 271 272 273 271 273 273 272 271 268 266 266 265 263 262 261 257 253 250 249 248 245 241 239 237 234 230 228 229 229 230 232 234 234 233 233 234 233 233 232 232 233 232 232
228 253 252 219 208 214 213 214 229 237 244 247 247 258 262 263 268 259 239 243 222 232 263 270 270 272 268 264 259 252 250 257 262 263 262 264 266 265 264 265 267 269 271 270 270 268 264 265 266 266 266 263 263 266 267 265 264 262 259 256 253 250 248 247 244 241 240 239 238 237 235 233 234 235 235 235 235 235 234 232 233 234 232 232 231 230
239 260 322 180 190 203 211 205 209 229 240 237 237 249 254 258 269 254 219 176 220 243 276 289 286 278 270 258 251 246 243 246 250 251 252 253 258 262 262 263 266 267 269 269 268 267 264 262 261 262 265 267 269 270 270 269 267 265 262 260 257 255 252 249 247 245 244 243 244 244 242 239 239 240 237 236 237 238 235 233 234 234 232 232 231 231
256 270 84 141 184 198 213 204 201 225 238 230 232 241 252 260 259 263 274 290 273 263 269 281 286 276 258 238 241 244 236 238 240 245 253 254 253 258 258 257 259 259 260 261 262 265 267 269 274 278 280 282 281 276 275 276 274 271 268 265 262 260 258 254 252 252 250 246 244 244 243 242 242 241 236 232 234 235 233 232 232 233 231 230 230 229
264 262 141 186 188 191 214 215 206 215 240 243 234 234 246 258 258 263 273 281 284 278 269 273 278 277 256 212 232 241 217 230 234 235 249 256 253 251 252 252 252 250 250 253 262 272 282 291 298 302 304 302 296 292 289 287 283 277 273 268 265 262 260 259 257 256 252 246 242 237 234 234 234 234 230 227 230 229 228 229 230 232 231 229 228 227
262 206 174 215 211 201 219 235 217 203 244 268 229 211 230 244 249 254 260 259 265 281 324 26 280 285 291 231 234 235 201 226 235 229 239 252 257 252 247 250 256 264 272 278 286 297 311 319 320 321 325 323 315 313 311 304 297 287 279 272 266 262 259 259 260 257 251 243 238 232 229 229 228 229 229 227 227 225 227 230 230 230 230 228 228 229
173 159 186 209 218 220 229 242 213 189 232 274 86 119 195 226 236 236 246 247 259 283 292 273 259 274 285 270 210 221 210 219 243 243 244 246 250 252 257 289 311 326 339 346 347 351 352 346 345 343 338 334 328 324 322 316 310 300 290 281 273 267 261 258 260 258 250 241 235 230 230 230 229 230 230 226 224 223 225 228 230 230 229 227 227 228
116 192 196 191 213 226 228 230 182 180 218 246 82 78 96 160 253 244 250 258 271 286 280 254 235 253 275 263 135 210 219 208 240 247 253 250 248 268 40 33 24 24 23 22 20 13 6 356 350 344 337 334 332 329 327 323 317 311 303 294 284 275 267 261 259 257 251 243 236 232 231 231 231 232 232 229 225 223 222 222 225 227 227 226 226 227
57 84 106 215 222 229 224 193 169 191 212 164 89 342 344 332 287 268 261 272 279 274 263 244 214 238 277 263 195 230 232 237 246 242 249 256 64 67 58 49 40 38 34 26 26 17 7 1 352 345 341 341 343 338 333 329 325 320 314 305 296 287 277 268 261 255 251 244 237 234 232 232 231 229 229 229 228 226 222 221 221 222 224 225 224 224
297 358 349 251 230 239 251 207 198 206 217 19 37 269 288 291 274 265 258 266 276 259 255 241 196 208 272 277 240 228 225 236 243 236 241 221 85 81 66 57 43 31 34 22 19 19 12 10 2 354 352 352 353 351 345 340 333 328 323 315 307 300 290 279 269 261 254 246 238 235 233 232 230 227 225 224 227 227 223 221 221 219 220 222 222 222
261 252 255 248 226 223 231 231 219 206 216 248 253 255 279 279 255 251 243 231 238 256 261 222 179 195 241 272 241 172 186 237 253 257 243 146 98 91 74 61 46 31 27 20 18 16 12 12 7 1 358 356 356 356 352 346 339 334 329 324 317 311 303 290 279 269 260 251 242 238 235 233 231 227 224 223 224 224 221 220 220 218 218 217 218 219
247 217 205 227 216 197 201 216 205 192 202 213 219 219 235 260 248 237 228 205 216 246 244 135 168 193 230 255 260 249 267 272 270 270 202 134 113 100 83 63 50 37 23 20 20 14 13 12 6 360 355 355 355 353 351 348 345 340 334 331 324 319 314 304 291 278 267 257 248 243 238 235 233 230 228 227 226 223 221 220 217 216 216 213 212 213
259 180 161 188 214 194 194 198 195 201 205 204 201 194 194 206 212 226 229 217 233 245 191 151 182 220 244 253 271 299 327 326 35 89 107 113 108 102 88 71 56 43 29 23 17 12 13 8 2 357 353 352 350 347 347 348 348 343 339 337 328 323 320 314 304 289 276 264 255 249 243 238 235 232 231 230 229 226 224 221 217 217 217 215 213 215
241 266 170 172 165 180 196 213 221 152 185 203 199 197 208 211 216 232 233 224 253 270 198 173 193 236 246 233 61 69 72 68 83 95 99 101 104 104 85 67 50 41 31 21 14 9 7 360 356 354 350 350 345 343 344 346 348 346 343 341 333 328 324 319 314 302 287 274 263 254 248 242 237 235 233 232 231 229 227 224 220 220 221 220 221 222
233 267 194 166 40 170 196 216 211 147 180 200 183 199 225 235 235 255 282 272 281 297 264 208 211 240 245 114 104 109 86 81 88 95 99 97 97 93 72 56 43 36 26 18 12 3 358 352 351 350 348 348 343 341 342 344 347 345 342 342 337 331 326 321 319 310 299 285 272 261 251 246 241 237 236 234 232 229 228 227 224 223 223 222 224 226
228 272 90 147 225 202 207 212 201 214 230 171 172 198 216 284 241 243 274 276 263 270 258 223 231 247 255 212 139 128 98 89 87 85 92 87 81 75 60 47 36 31 21 16 8 356 353 347 345 347 345 345 341 337 338 342 344 341 339 341 338 335 331 327 324 317 309 297 282 270 257 249 243 238 236 235 234 231 229 229 228 225 223 223 225 227
236 274 147 172 208 202 199 273 228 247 269 170 185 198 134 64 243 231 263 264 239 254 252 222 231 239 247 238 141 127 115 102 92 85 87 79 71 64 55 43 29 23 12 7 3 354 352 345 343 343 340 341 339 335 336 339 340 339 338 340 339 338 335 331 327 321 315 307 293 279 266 255 247 241 238 236 236 233 230 230 231 230 227 225 227 229
214 263 229 178 205 141 100 240 238 229 225 221 261 297 168 225 231 213 225 244 242 253 257 229 231 234 237 232 147 140 138 121 113 103 87 73 64 54 46 36 23 16 7 2 359 353 351 346 343 342 340 342 342 340 338 335 336 338 339 341 341 339 337 333 330 326 320 314 303 289 276 264 253 246 242 238 235 233 232 232 232 231 227 226 228 228
154 243 262 162 206 52 110 217 223 197 174 215 295 277 244 247 254 230 223 236 243 251 258 239 228 226 234 237 163 152 149 138 135 114 88 71 62 51 37 28 16 8 -0 354 352 349 349 345 343 341 340 341 340 337 334 331 332 336 339 343 344 342 342 339 336 332 326 321 313 300 287 274 261 251 244 240 235 233 234 234 232 229 226 227 229 226
152 216 241 158 109 250 215 205 214 206 184 195 221 221 218 220 257 283 256 240 239 248 255 248 244 231 219 255 135 146 148 147 140 114 98 79 61 48 33 22 10 2 352 346 346 345 345 343 340 339 336 336 337 333 331 331 332 334 341 346 347 346 345 342 338 334 330 328 322 310 298 284 270 258 248 242 237 234 235 234 231 229 227 228 229 225
187 206 222 215 190 212 216 160 237 238 214 211 216 212 215 212 213 244 245 227 220 242 252 253 259 253 164 93 132 153 154 151 133 106 92 81 64 49 31 13 360 353 343 337 338 336 339 340 336 334 332 333 336 334 332 335 335 337 342 346 347 347 345 342 338 333 331 332 328 317 307 295 278 265 254 244 239 236 234 233 231 229 226 227 228 225
180 176 223 230 222 220 228 66 50 330 314 255 239 220 213 208 210 230 240 235 225 241 256 263 263 260 180 137 166 160 155 152 138 110 83 61 48 40 12 354 347 344 335 328 326 327 332 332 328 327 326 330 335 333 331 334 336 336 339 342 345 345 343 342 340 334 331 330 330 325 316 305 289 273 261 250 243 238 235 232 230 228 228 229 228 225
148 169 228 240 244 251 288 241 165 22 358 256 244 207 195 205 213 228 246 260 255 243 247 253 254 252 187 149 170 152 151 162 186 218 259 283 287 338 336 336 338 335 330 321 317 321 323 322 322 322 323 328 332 331 329 331 333 332 335 339 341 341 343 344 343 340 336 329 327 330 326 317 304 284 269 257 249 242 237 233 230 230 230 229 227 225
160 195 216 238 247 234 236 233 221 191 202 232 227 200 197 202 202 211 261 266 250 234 233 248 254 249 194 134 149 157 172 201 230 247 262 260 253 310 324 330 334 328 325 319 314 319 320 319 319 318 322 329 330 329 326 326 328 329 330 336 339 340 344 347 346 342 340 334 329 332 334 330 320 303 282 267 256 248 241 236 232 232 232 228 226 225
197 213 200 211 234 233 223 216 217 214 206 211 219 213 209 196 191 192 201 222 233 226 223 236 250 257 257 245 224 201 219 247 254 264 271 255 234 311 319 323 328 321 316 311 310 317 319 318 319 319 324 328 327 326 323 321 324 325 327 332 336 339 344 349 349 344 341 339 334 332 336 337 332 321 304 284 267 256 246 239 235 234 231 227 226 224
218 231 213 208 223 233 233 222 216 211 197 192 206 211 211 203 198 200 214 226 232 233 234 232 238 260 261 255 254 255 258 266 271 276 276 262 254 311 315 317 318 311 307 305 306 313 316 317 320 321 322 322 321 321 320 319 321 323 325 328 333 338 342 346 348 346 341 339 337 334 335 337 335 328 319 303 285 270 255 244 239 235 231 228 226 223
239 239 231 231 234 238 244 246 238 224 208 207 210 209 211 211 206 204 218 227 227 237 244 218 201 238 254 257 259 258 256 260 264 266 267 263 270 297 305 309 306 299 299 301 302 308 314 318 319 317 317 317 315 317 319 318 320 325 325 324 329 335 339 343 346 345 341 337 336 335 333 334 336 333 326 318 303 286 270 254 244 237 232 229 225 222
250 256 243 248 257 260 263 266 263 255 235 222 222 219 215 213 209 207 217 225 223 232 243 218 209 231 250 256 254 249 245 251 257 261 266 262 262 283 296 296 292 291 295 297 300 309 313 312 311 311 313 314 311 315 320 320 324 331 331 328 327 331 337 341 342 342 339 334 333 337 336 332 335 339 333 327 318 302 285 268 252 242 236 230 225 223
221 269 270 268 276 275 273 273 271 267 257 243 238 236 231 224 213 210 217 221 220 225 236 239 238 241 245 251 255 254 244 244 252 261 262 258 258 272 284 278 274 280 288 292 298 305 305 300 301 303 305 309 314 319 324 326 329 331 332 331 330 331 336 339 338 337 337 332 328 336 341 337 335 340 341 335 329 318 302 285 266 251 241 233 228 225
212 256 275 276 277 272 269 269 266 264 263 257 248 243 243 241 227 216 220 226 226 227 232 238 244 246 245 252 261 261 243 235 258 259 256 258 260 263 264 260 262 272 280 288 297 302 298 297 302 307 311 315 319 325 327 327 329 329 330 332 333 333 335 336 335 333 333 331 327 331 339 339 336 338 344 341 333 327 318 302 282 262 247 239 233 228
221 252 268 268 269 266 261 262 266 270 269 263 254 245 241 244 239 225 218 222 224 225 231 236 243 249 249 254 260 255 221 238 257 255 254 257 249 237 243 248 255 267 276 282 289 292 291 298 309 314 318 320 319 326 329 326 327 330 333 334 335 338 339 337 335 331 330 332 329 327 332 337 334 333 338 342 337 330 326 316 298 277 258 245 238 232
220 246 259 258 266 271 261 258 267 271 266 260 253 242 236 238 239 234 225 224 225 227 235 239 242 247 247 251 257 250 231 242 251 250 250 249 233 221 231 241 248 259 271 276 278 281 284 293 306 310 314 317 319 323 325 325 325 328 331 331 335 343 344 340 336 333 332 333 331 327 328 332 331 328 331 338 338 330 327 323 310 289 269 254 245 237
225 232 246 249 257 268 266 264 265 259 256 259 238 220 230 234 236 239 237 231 227 226 232 239 246 251 251 252 255 254 251 250 249 245 239 234 232 231 229 230 239 251 260 262 261 265 272 281 293 305 312 315 320 325 325 326 325 325 329 331 337 347 346 340 337 334 332 333 332 329 326 328 330 327 325 331 335 330 323 324 319 303 283 266 253 242
227 230 238 240 244 255 261 261 256 250 254 256 214 213 228 235 238 242 243 237 232 229 229 237 245 249 250 251 253 257 260 256 244 242 238 228 229 233 227 227 237 245 248 247 248 247 244 259 280 299 314 320 327 330 328 329 328 327 333 339 344 349 349 343 337 334 331 331 330 329 327 326 328 326 324 326 329 328 324 322 322 315 301 281 261 248
225 230 235 237 241 248 249 246 249 262 301 273 234 224 227 232 235 240 244 241 237 233 232 235 239 243 247 252 255 258 259 251 234 246 246 232 222 219 225 234 237 238 237 234 233 227 215 231 263 287 311 325 333 334 332 332 330 330 336 343 347 349 348 344 339 336 333 331 329 328 326 324 324 324 325 325 324 324 326 323 319 318 314 299 275 259
223 228 235 236 232 235 243 247 255 271 277 263 248 227 221 226 227 231 244 245 231 227 231 231 236 243 246 251 256 257 251 235 249 259 251 235 213 205 222 237 235 228 225 216 208 200 191 202 236 277 309 332 342 341 337 334 333 334 336 343 349 347 347 347 343 338 334 330 329 328 324 322 321 320 323 325 324 322 323 322 316 313 316 312 294 273
220 221 223 229 225 224 241 252 258 263 261 255 241 220 214 225 228 223 238 246 225 220 226 226 232 240 242 248 253 246 221 224 252 262 254 229 200 198 218 229 225 212 195 184 183 178 173 183 198 242 316 346 351 349 346 339 336 338 340 345 348 346 348 350 345 339 334 331 330 326 320 319 318 316 319 322 323 323 322 319 316 309 310 311 302 287
222 220 220 228 231 227 237 248 250 255 264 269 259 238 219 224 231 230 241 244 218 214 223 222 227 235 238 244 242 215 190 231 245 254 249 206 185 199 212 209 200 183 167 166 173 172 168 166 156 148 85 9 355 352 353 348 342 343 347 348 346 346 351 350 342 336 332 333 333 326 317 316 314 312 315 318 320 323 322 318 314 310 307 306 302 295
227 228 228 231 233 232 237 247 252 259 272 275 272 261 235 224 226 230 240 237 194 204 226 226 226 233 236 234 219 188 200 227 237 251 235 179 177 195 195 184 176 166 157 157 160 158 155 153 149 148 130 35 358 351 354 352 347 350 353 350 349 349 348 342 336 334 331 332 333 325 315 315 313 310 311 316 319 323 323 320 316 314 312 306 301 299
218 223 229 231 233 236 240 247 254 263 270 270 269 263 240 223 226 229 238 232 169 202 228 231 229 234 232 213 191 193 219 227 234 258 149 161 172 169 162 167 161 150 147 148 150 149 147 148 149 145 130 70 7 356 355 353 352 354 353 354 357 352 343 335 334 335 334 331 328 322 316 315 316 313 312 315 320 324 326 326 322 318 316 309 302 300
208 210 222 225 231 236 242 254 263 263 269 286 282 270 232 208 228 238 246 246 207 214 228 233 233 237 224 187 189 219 229 223 212 143 134 163 172 159 157 157 135 128 130 133 138 146 146 144 142 138 128 88 33 10 2 359 357 355 353 355 354 346 337 334 334 334 333 330 324 321 320 319 319 319 317 318 322 325 328 331 328 323 320 315 306 298
202 206 222 220 224 238 240 243 254 259 307 341 321 305 241 224 285 328 303 279 258 247 252 252 233 225 207 191 203 221 225 206 175 159 156 170 173 160 156 154 139 129 126 124 126 137 141 136 133 133 127 96 59 29 12 7 3 1 359 353 348 341 335 339 342 337 330 326 322 323 325 327 329 327 322 321 323 324 327 333 333 328 325 320 308 295
198 215 238 231 222 233 240 237 242 283 346 339 328 323 323 337 2 5 341 322 324 309 282 267 240 214 209 211 215 220 219 192 168 168 165 168 170 150 138 142 134 120 114 111 106 110 119 118 118 126 120 93 67 45 30 22 11 7 2 351 347 344 340 345 349 345 332 325 327 330 332 335 338 335 326 323 324 324 328 335 336 332 328 324 313 296
196 223 249 248 234 232 249 259 306 29 11 6 14 12 357 360 10 8 349 333 328 320 307 288 265 238 223 224 228 228 220 196 176 175 174 169 153 127 117 114 106 100 99 92 83 81 87 91 100 116 105 73 50 41 40 41 34 20 1 352 352 351 346 346 349 346 337 330 330 333 335 338 341 337 330 327 325 324 329 335 337 335 328 323 316 301
28 347 300 259 252 266 282 328 39 19 352 13 41 35 16 10 7 1 350 335 323 317 312 299 284 277 249 224 223 227 217 196 179 177 173 152 123 109 105 99 91 89 88 82 72 60 64 78 80 91 84 50 28 25 29 33 42 33 2 353 356 355 351 349 348 345 341 336 330 330 333 337 337 334 331 331 326 324 328 332 334 333 328 322 317 304
52 8 342 186 234 278 247 86 49 348 342 27 37 21 15 11 1 355 346 330 322 317 313 314 325 325 313 225 225 228 206 181 169 159 141 120 110 106 103 99 94 88 81 71 56 46 54 59 55 68 67 34 17 15 17 19 22 14 0 358 -0 359 356 354 348 341 340 338 332 329 331 333 332 331 332 332 328 325 328 331 334 333 328 323 321 311
47 351 350 114 299 276 192 84 1 303 196 78 45 17 8 0 350 348 344 333 328 326 326 337 353 350 2 13 332 278 184 164 155 133 114 108 107 101 99 101 98 89 76 59 45 44 49 47 48 61 53 28 15 10 10 12 9 1 360 3 6 5 1 357 350 342 338 335 330 330 333 333 333 332 330 329 327 325 326 329 331 330 328 323 318 311
314 328 356 25 288 272 214 24 357 328 180 88 31 11 3 356 346 342 342 342 344 341 339 345 358 10 21 13 353 3 103 102 104 106 101 99 99 99 99 98 92 81 67 53 45 45 47 46 49 53 39 21 12 7 7 7 1 358 360 4 8 7 2 356 353 346 339 334 329 331 334 333 333 332 328 325 325 322 322 328 328 321 319 320 320 316
326 343 349 304 251 262 0 12 3 345 251 338 357 354 354 356 349 343 346 350 351 346 341 340 349 12 27 18 6 25 66 62 66 86 92 90 92 95 91 86 81 69 54 48 47 45 44 47 49 43 27 14 8 7 6 2 357 358 0 5 9 8 2 356 351 343 339 339 335 335 336 333 332 332 328 325 324 321 325 336 343 335 318 313 320 327
12 12 345 319 272 329 3 5 357 330 291 312 331 338 350 359 352 346 350 352 348 346 345 344 351 9 25 25 21 32 55 62 64 79 86 83 80 82 77 72 70 61 47 43 44 39 36 39 38 29 18 12 7 3 2 -0 356 357 -0 5 9 8 4 359 349 337 337 339 335 334 335 331 329 331 327 324 323 320 321 331 341 345 338 321 320 328